• In Hungary
  • List of Countries
  • For 7 days
  • Water Temperature
  • Satellite Maps
  • Weather Map
  • News
  • Weather Widgets
  • user-avatar
    Login

    Hourly Weather Yugovo

    Today, 20 September, Thursday

    Time Temperature Precipitation Wind Pressure Humidity
    00:00 -3°C° 0.6 mm 4 mps 662 mmHg 96%
    01:00 -3°C° 0.6 mm 4 mps 662 mmHg 96%
    02:00 -4°C° 0.6 mm 5 mps 662 mmHg 95%
    03:00 -4°C° 0.6 mm 5 mps 661 mmHg 95%
    04:00 -4°C° 0.6 mm 5 mps 661 mmHg 95%
    05:00 -4°C° 0.4 mm 5 mps 661 mmHg 94%
    06:00 -4°C° 0.4 mm 5 mps 661 mmHg 94%
    07:00 -4°C° 0 mm 5 mps 661 mmHg 91%
    08:00 -4°C° 0.4 mm 5 mps 661 mmHg 88%
    09:00 -3°C° 0.4 mm 6 mps 661 mmHg 85%
    10:00 -3°C° 0.4 mm 7 mps 661 mmHg 82%
    11:00 -2°C° 0.2 mm 7 mps 661 mmHg 79%
    12:00 -2°C° 0.2 mm 7 mps 661 mmHg 77%
    13:00 -1°C° 0 mm 7 mps 662 mmHg 75%
    14:00 -1°C° 0.1 mm 6 mps 662 mmHg 76%
    15:00 -1°C° 0.1 mm 6 mps 662 mmHg 77%
    16:00 -1°C° 0.1 mm 6 mps 663 mmHg 78%
    17:00 0°C° 0.1 mm 5 mps 663 mmHg 80%
    18:00 -1°C° 0.1 mm 5 mps 663 mmHg 83%
    19:00 -1°C° 0 mm 4 mps 664 mmHg 86%
    20:00 -2°C° 0.1 mm 4 mps 664 mmHg 86%
    21:00 -2°C° 0.1 mm 4 mps 664 mmHg 86%
    22:00 -1°C° 0.1 mm 3 mps 664 mmHg 86%
    23:00 -1°C° 0 mm 3 mps 664 mmHg 87%

    Tomorrow, 21 September, Friday

    Time Temperature Precipitation Wind Pressure Humidity
    00:00 -1°C° 0 mm 3 mps 664 mmHg 88%
    01:00 -2°C° 0 mm 3 mps 664 mmHg 89%
    02:00 -2°C° 0 mm 2 mps 664 mmHg 90%
    03:00 -3°C° 0 mm 2 mps 664 mmHg 91%
    04:00 -4°C° 0 mm 2 mps 663 mmHg 92%
    05:00 -3°C° 0 mm 2 mps 664 mmHg 90%
    06:00 -3°C° 0 mm 2 mps 664 mmHg 88%
    07:00 -2°C° 0 mm 2 mps 664 mmHg 85%
    08:00 +1°C° 0 mm 2 mps 664 mmHg 79%
    09:00 +3°C° 0 mm 2 mps 664 mmHg 72%
    10:00 +5°C° 0 mm 2 mps 664 mmHg 65%
    11:00 +6°C° 0 mm 2 mps 664 mmHg 63%
    12:00 +6°C° 0 mm 2 mps 664 mmHg 61%
    13:00 +7°C° 0 mm 3 mps 664 mmHg 59%
    14:00 +7°C° 0 mm 2 mps 664 mmHg 60%
    15:00 +7°C° 0 mm 2 mps 664 mmHg 62%
    16:00 +7°C° 0 mm 2 mps 664 mmHg 63%
    17:00 +5°C° 0 mm 2 mps 664 mmHg 72%
    18:00 +4°C° 0 mm 1 mps 664 mmHg 80%
    19:00 +1°C° 0 mm 1 mps 664 mmHg 89%
    20:00 +1°C° 0 mm 1 mps 664 mmHg 90%
    21:00 +1°C° 0 mm 1 mps 664 mmHg 91%
    22:00 -2°C° 0 mm 2 mps 665 mmHg 93%
    23:00 -2°C° 0 mm 2 mps 665 mmHg 93%

    Day after tomorrow, 22 September, Saturday

    Time Temperature Precipitation Wind Pressure Humidity
    00:00 -2°C° 0 mm 2 mps 665 mmHg 93%
    01:00 -3°C° 0 mm 2 mps 665 mmHg 93%
    02:00 -1°C° 0 mm 1 mps 665 mmHg 93%
    03:00 -1°C° 0 mm 1 mps 665 mmHg 92%
    04:00 -1°C° 0 mm 1 mps 665 mmHg 92%
    05:00 0°C° 0 mm 1 mps 665 mmHg 88%
    06:00 0°C° 0 mm 1 mps 666 mmHg 85%
    07:00 +1°C° 0 mm 1 mps 666 mmHg 81%
    08:00 +4°C° 0 mm 1 mps 666 mmHg 72%
    09:00 +7°C° 0 mm 1 mps 666 mmHg 63%
    10:00 +9°C° 0 mm 0 mps 667 mmHg 54%
    11:00 +10°C° 0 mm 1 mps 666 mmHg 52%
    12:00 +11°C° 0 mm 1 mps 666 mmHg 49%
    13:00 +12°C° 0 mm 1 mps 666 mmHg 47%
    14:00 +11°C° 0 mm 1 mps 665 mmHg 51%
    15:00 +11°C° 0 mm 1 mps 665 mmHg 54%
    16:00 +10°C° 0 mm 1 mps 664 mmHg 58%
    17:00 +8°C° 0 mm 1 mps 664 mmHg 68%
    18:00 +5°C° 0 mm 1 mps 664 mmHg 77%
    19:00 +3°C° 0 mm 1 mps 664 mmHg 87%
    20:00 +2°C° 0 mm 1 mps 664 mmHg 86%
    21:00 +2°C° 0 mm 1 mps 664 mmHg 85%
    22:00 -1°C° 0 mm 2 mps 664 mmHg 84%
    23:00 -1°C° 0 mm 2 mps 664 mmHg 83%

    23 September, Sunday

    Time Temperature Precipitation Wind Pressure Humidity
    00:00 -1°C° 0 mm 2 mps 664 mmHg 81%
    01:00 -1°C° 0 mm 2 mps 664 mmHg 80%
    02:00 -2°C° 0 mm 2 mps 663 mmHg 79%
    03:00 -2°C° 0 mm 2 mps 663 mmHg 77%
    04:00 -2°C° 0 mm 2 mps 663 mmHg 76%
    05:00 -1°C° 0 mm 2 mps 663 mmHg 73%
    06:00 -1°C° 0 mm 2 mps 663 mmHg 71%
    07:00 +1°C° 0 mm 2 mps 663 mmHg 68%
    08:00 +4°C° 0 mm 2 mps 664 mmHg 62%
    09:00 +7°C° 0 mm 2 mps 664 mmHg 55%
    10:00 +9°C° 0 mm 2 mps 664 mmHg 49%
    11:00 +10°C° 0 mm 2 mps 664 mmHg 48%
    12:00 +12°C° 0 mm 2 mps 663 mmHg 48%
    13:00 +13°C° 0 mm 2 mps 663 mmHg 47%
    14:00 +13°C° 0 mm 2 mps 663 mmHg 52%
    15:00 +12°C° 0 mm 2 mps 662 mmHg 57%
    16:00 +12°C° 0 mm 2 mps 662 mmHg 61%
    17:00 +8°C° 0 mm 2 mps 661 mmHg 70%
    18:00 +6°C° 0 mm 2 mps 661 mmHg 79%
    19:00 +5°C° 0 mm 1 mps 661 mmHg 88%
    20:00 +4°C° 0 mm 2 mps 661 mmHg 87%
    21:00 +4°C° 0 mm 2 mps 661 mmHg 86%
    22:00 +4°C° 0 mm 2 mps 661 mmHg 85%
    23:00 +3°C° 0 mm 2 mps 661 mmHg 84%

    24 September, Monday

    Time Temperature Precipitation Wind Pressure Humidity
    00:00 +3°C° 0 mm 2 mps 660 mmHg 84%
    01:00 +3°C° 0 mm 2 mps 660 mmHg 83%
    02:00 +2°C° 0 mm 2 mps 660 mmHg 83%
    03:00 +2°C° 0 mm 2 mps 660 mmHg 82%
    04:00 +2°C° 0 mm 2 mps 660 mmHg 81%
    05:00 +2°C° 0 mm 2 mps 660 mmHg 79%
    06:00 +3°C° 0 mm 2 mps 660 mmHg 76%
    07:00 +4°C° 0 mm 1 mps 660 mmHg 74%
    08:00 +7°C° 0 mm 1 mps 660 mmHg 66%
    09:00 +10°C° 0 mm 1 mps 661 mmHg 59%
    10:00 +12°C° 0 mm 1 mps 661 mmHg 51%
    11:00 +13°C° 0 mm 1 mps 661 mmHg 51%
    12:00 +13°C° 0 mm 1 mps 660 mmHg 51%
    13:00 +14°C° 0 mm 2 mps 660 mmHg 51%
    14:00 +13°C° 0 mm 1 mps 660 mmHg 55%
    15:00 +12°C° 0 mm 1 mps 659 mmHg 59%
    16:00 +11°C° 0 mm 1 mps 659 mmHg 64%
    17:00 +10°C° 0 mm 1 mps 659 mmHg 70%
    18:00 +8°C° 0 mm 1 mps 658 mmHg 77%
    19:00 +6°C° 0 mm 1 mps 658 mmHg 84%
    20:00 +6°C° 0 mm 1 mps 658 mmHg 84%
    21:00 +5°C° 0 mm 1 mps 658 mmHg 85%
    22:00 +5°C° 0 mm 1 mps 658 mmHg 86%
    23:00 +5°C° 0 mm 1 mps 658 mmHg 86%

    25 September, Tuesday

    Time Temperature Precipitation Wind Pressure Humidity
    00:00 +4°C° 0 mm 1 mps 658 mmHg 86%
    01:00 +3°C° 0 mm 2 mps 658 mmHg 85%
    02:00 +4°C° 0 mm 1 mps 658 mmHg 85%
    03:00 +4°C° 0 mm 1 mps 657 mmHg 85%
    04:00 +4°C° 0 mm 1 mps 657 mmHg 85%
    05:00 +4°C° 0 mm 1 mps 657 mmHg 83%
    06:00 +5°C° 0 mm 1 mps 658 mmHg 81%
    07:00 +5°C° 0 mm 1 mps 658 mmHg 79%
    08:00 +8°C° 0 mm 1 mps 658 mmHg 72%
    09:00 +10°C° 0 mm 1 mps 659 mmHg 64%
    10:00 +13°C° 0 mm 1 mps 659 mmHg 56%
    11:00 +14°C° 0 mm 2 mps 659 mmHg 55%
    12:00 +14°C° 0 mm 2 mps 658 mmHg 53%
    13:00 +15°C° 0 mm 2 mps 658 mmHg 51%
    14:00 +15°C° 0 mm 2 mps 658 mmHg 55%
    15:00 +14°C° 0 mm 2 mps 658 mmHg 60%
    16:00 +13°C° 0 mm 1 mps 657 mmHg 64%
    17:00 +11°C° 0.1 mm 1 mps 657 mmHg 72%
    18:00 +10°C° 0.1 mm 1 mps 657 mmHg 80%
    19:00 +7°C° 0.1 mm 0 mps 657 mmHg 89%
    20:00 +6°C° 0.3 mm 0 mps 656 mmHg 90%
    21:00 +6°C° 0.3 mm 0 mps 656 mmHg 91%
    22:00 +6°C° 0.3 mm 0 mps 656 mmHg 93%
    23:00 +6°C° 0.7 mm 0 mps 656 mmHg 94%
    Show more